FW8022 Weather Reports


Display with metric or nautical units.
time (UTC)temp
F
wind
direction
speed
MPH
gust
MPH
rain 1hr
in
rain 24hr
in
rain mn
in
humidity
%
barometer
mb
20260506131039 55 318 0.0 2.0 0.00 0.02 0.00 84 1018.5
20260506130540 55 0 0.0 3.0 0.00 0.02 0.00 84 1018.4
20260506130050 55 273 1.0 3.0 0.00 0.02 0.00 84 1018.5
20260506125538 55 287 1.0 4.0 0.00 0.02 0.00 85 1018.5
20260506125039 55 336 1.0 5.0 0.00 0.02 0.00 84 1018.5
20260506124542 55 299 1.0 5.0 0.00 0.02 0.00 84 1018.4
20260506124039 55 345 1.0 5.0 0.00 0.02 0.00 84 1018.4
20260506123541 55 312 0.0 4.0 0.00 0.02 0.00 85 1018.4
20260506123047 55 19 0.0 3.0 0.00 0.02 0.00 85 1018.3
20260506122535 55 303 1.0 4.0 0.00 0.02 0.00 85 1018.2
20260506122036 55 42 1.0 4.0 0.00 0.02 0.00 85 1018.2
20260506121545 55 346 1.0 3.0 0.00 0.02 0.00 85 1018.2
20260506121037 55 312 0.0 3.0 0.00 0.02 0.00 85 1018.2
20260506120542 55 298 1.0 3.0 0.00 0.02 0.00 85 1018.1
20260506120047 55 269 1.0 3.0 0.00 0.02 0.00 85 1018.1
20260506115537 55 0 0.0 3.0 0.00 0.02 0.00 85 1018.1
20260506115036 55 0 0.0 4.0 0.00 0.02 0.00 85 1018.1
20260506114558 55 301 1.0 4.0 0.00 0.02 0.00 86 1018.0
20260506114037 55 288 2.0 4.0 0.00 0.02 0.00 85 1018.0
20260506113536 55 0 0.0 4.0 0.00 0.02 0.00 86 1018.0
20260506113053 55 279 0.0 3.0 0.00 0.02 0.00 85 1018.0
20260506112536 55 312 1.0 4.0 0.00 0.02 0.00 85 1017.9
20260506112036 55 231 1.0 4.0 0.00 0.02 0.00 85 1017.9
20260506111552 55 345 1.0 4.0 0.00 0.02 0.00 85 1017.9
20260506111040 55 288 2.0 4.0 0.00 0.02 0.00 85 1017.7
20260506110536 55 292 1.0 4.0 0.00 0.02 0.00 85 1017.8
20260506110047 55 295 1.0 4.0 0.00 0.02 0.00 85 1017.8
20260506105536 55 284 1.0 8.0 0.00 0.02 0.00 85 1017.7
20260506105036 55 313 1.0 8.0 0.00 0.02 0.00 85 1017.7
20260506104553 55 282 1.0 4.0 0.00 0.02 0.00 86 1017.7
20260506104036 55 331 1.0 5.0 0.00 0.02 0.00 86 1017.7
20260506103533 55 275 1.0 5.0 0.00 0.02 0.00 86 1017.7
20260506103058 55 249 1.0 4.0 0.00 0.02 0.00 86 1017.7
20260506102534 55 272 1.0 3.0 0.00 0.02 0.00 86 1017.7
20260506102034 55 284 1.0 3.0 0.00 0.02 0.00 86 1017.6
20260506101550 55 263 1.0 3.0 0.00 0.02 0.00 86 1017.6
20260506101036 55 286 1.0 4.0 0.00 0.02 0.00 86 1017.6
20260506100533 55 293 1.0 5.0 0.00 0.02 0.00 86 1017.6
20260506100043 55 281 1.0 5.0 0.00 0.02 0.00 86 1017.6
20260506095540 55 329 1.0 6.0 0.00 0.03 0.00 86 1017.6
20260506095033 55 279 2.0 6.0 0.00 0.03 0.00 86 1017.6
20260506094541 55 269 1.0 4.0 0.00 0.03 0.00 86 1017.6
20260506094033 55 289 1.0 4.0 0.00 0.03 0.00 87 1017.7
20260506093536 55 0 1.0 4.0 0.00 0.03 0.00 87 1017.6
20260506093046 55 0 0.0 4.0 0.00 0.03 0.00 87 1017.6
20260506092533 55 281 1.0 3.0 0.00 0.03 0.00 88 1017.5
20260506092033 55 304 0.0 3.0 0.00 0.03 0.00 88 1017.5
20260506091544 55 273 1.0 4.0 0.00 0.03 0.00 88 1017.5
20260506091109 55 278 1.0 4.0 0.00 0.03 0.00 88 1017.4
20260506090538 55 295 1.0 3.0 0.00 0.03 0.00 88 1017.5
20260506090043 55 267 1.0 3.0 0.00 0.03 0.00 88 1017.5
20260506085537 55 310 0.0 4.0 0.00 0.11 0.00 88 1017.5
20260506085037 55 291 1.0 4.0 0.00 0.11 0.00 88 1017.5
20260506084545 55 290 2.0 4.0 0.00 0.11 0.00 88 1017.4
20260506084037 55 277 1.0 4.0 0.00 0.11 0.00 88 1017.5
20260506083539 55 0 1.0 4.0 0.00 0.11 0.00 88 1017.5
20260506083052 56 286 2.0 4.0 0.00 0.11 0.00 88 1017.5
20260506082540 56 289 1.0 4.0 0.00 0.11 0.00 88 1017.6
20260506082038 56 280 1.0 4.0 0.00 0.11 0.00 88 1017.5
20260506081552 56 265 0.0 4.0 0.00 0.11 0.00 88 1017.6
20260506081040 56 279 1.0 4.0 0.00 0.11 0.00 88 1017.6
20260506080538 56 285 1.0 4.0 0.00 0.11 0.00 88 1017.6
20260506073053 56 327 0.0 4.0 0.00 0.13 0.00 88 1017.3
20260506072538 56 280 1.0 4.0 0.00 0.13 0.00 87 1017.4
20260506072037 56 283 2.0 4.0 0.00 0.13 0.00 87 1017.3
20260506071544 56 289 1.0 4.0 0.00 0.13 0.00 87 1017.3
20260506071038 56 295 1.0 5.0 0.00 0.13 0.00 87 1017.3
20260506070538 56 0 1.0 6.0 0.00 0.13 0.00 87 1017.3
20260506062038 56 278 1.0 3.0 0.00 0.14 0.13 87 1017.0
20260506061556 56 261 0.0 4.0 0.00 0.14 0.13 87 1017.1
20260506061041 56 261 1.0 4.0 0.00 0.14 0.13 88 1017.0
20260506060538 56 0 1.0 4.0 0.00 0.14 0.13 88 1017.0
20260506051042 56 279 1.0 4.0 0.00 0.16 0.13 90 1016.8
20260506050538 56 244 1.0 4.0 0.00 0.16 0.13 90 1016.7
20260506045040 56 237 0.0 4.0 0.00 0.16 0.13 90 1016.7
20260506044552 56 237 1.0 4.0 0.00 0.16 0.13 90 1016.6
20260506044037 56 225 1.0 4.0 0.00 0.16 0.13 90 1016.6
20260506043538 56 225 1.0 4.0 0.00 0.16 0.13 90 1016.6
20260506043043 56 240 1.0 3.0 0.00 0.16 0.13 90 1016.5
20260506042537 56 245 1.0 4.0 0.00 0.16 0.13 90 1016.4
20260506042039 56 242 1.0 4.0 0.00 0.16 0.13 90 1016.4
20260506041545 56 242 1.0 4.0 0.00 0.16 0.13 90 1016.2
20260506041037 56 242 1.0 4.0 0.00 0.16 0.13 90 1016.2
20260506040537 56 223 2.0 4.0 0.00 0.16 0.13 90 1016.1
20260506040051 56 240 1.0 4.0 0.00 0.16 0.13 90 1016.0
20260506035538 56 240 2.0 4.0 0.00 0.16 0.13 90 1015.9
20260506035036 56 0 1.0 3.0 0.00 0.16 0.13 90 1015.9
20260506034547 56 216 1.0 4.0 0.00 0.16 0.13 90 1015.8
20260506034036 56 228 1.0 4.0 0.00 0.16 0.13 90 1015.7
20260506033537 56 238 1.0 3.0 0.00 0.16 0.13 90 1015.6
20260506033045 56 238 1.0 4.0 0.00 0.16 0.13 90 1015.6
20260506032538 56 238 1.0 4.0 0.00 0.16 0.13 90 1015.5
20260506032040 56 224 1.0 4.0 0.00 0.16 0.13 89 1015.4
20260506031544 56 244 2.0 4.0 0.00 0.16 0.13 89 1015.5
20260506031038 56 243 2.0 4.0 0.00 0.16 0.13 89 1015.3
20260506030539 56 225 2.0 4.0 0.00 0.16 0.13 89 1015.4
20260506030044 56 232 2.0 4.0 0.00 0.16 0.13 89 1015.3
20260506025538 56 224 2.0 4.0 0.00 0.16 0.13 89 1015.3
20260506025037 56 231 2.0 4.0 0.00 0.16 0.13 89 1015.3
20260506024545 56 232 2.0 4.0 0.00 0.16 0.13 88 1015.2
20260506024037 56 244 2.0 5.0 0.00 0.16 0.13 88 1015.2
20260506023538 56 214 2.0 5.0 0.00 0.16 0.13 88 1015.2
20260506023053 56 219 2.0 5.0 0.00 0.16 0.13 88 1015.1
20260506022537 56 218 3.0 7.0 0.00 0.16 0.13 88 1015.1
20260506022038 56 240 3.0 7.0 0.00 0.16 0.13 88 1015.0
20260506021555 56 252 3.0 7.0 0.00 0.16 0.13 88 1015.0
20260506021041 56 235 3.0 7.0 0.00 0.16 0.13 88 1015.1
20260506020539 56 236 3.0 7.0 0.00 0.16 0.13 88 1015.0
20260506020047 56 232 2.0 5.0 0.00 0.16 0.13 87 1015.1
20260506015538 56 239 2.0 7.0 0.00 0.16 0.13 87 1015.1
20260506015039 56 254 3.0 7.0 0.00 0.16 0.13 87 1015.1
20260506014552 56 246 3.0 7.0 0.00 0.16 0.13 87 1015.0
20260506014037 57 228 3.0 7.0 0.00 0.16 0.13 87 1015.0
20260506013537 57 225 3.0 6.0 0.00 0.16 0.13 87 1015.2
20260506013043 57 245 2.0 5.0 0.00 0.16 0.13 86 1015.1
20260506012537 57 234 2.0 6.0 0.00 0.16 0.13 87 1015.1
20260506012039 57 236 3.0 7.0 0.00 0.16 0.13 86 1015.1
20260506011552 57 250 3.0 7.0 0.00 0.16 0.13 86 1015.0
20260506011037 58 229 2.0 6.0 0.00 0.16 0.13 86 1015.0
20260506010537 58 216 2.0 6.0 0.00 0.16 0.13 85 1015.0
20260506005537 58 229 3.0 6.0 0.00 0.16 0.13 85 1015.0
20260506005037 58 250 2.0 6.0 0.00 0.16 0.13 85 1015.0
20260506004550 59 240 2.0 7.0 0.00 0.16 0.13 84 1014.9
20260506004038 58 232 2.0 7.0 0.00 0.16 0.13 85 1014.9
20260506003537 58 244 3.0 7.0 0.00 0.16 0.13 84 1014.8
20260506003044 59 221 2.0 7.0 0.00 0.16 0.13 83 1014.7
20260506002538 59 255 2.0 7.0 0.00 0.16 0.13 84 1014.7
20260506002038 58 240 3.0 7.0 0.00 0.16 0.13 84 1014.7
20260506001553 58 253 4.0 8.0 0.00 0.16 0.13 84 1014.7
20260506001038 58 225 3.0 8.0 0.00 0.16 0.13 85 1014.7
20260506000539 58 236 2.0 7.0 0.00 0.16 0.13 84 1014.7
20260506000052 59 242 3.0 7.0 0.00 0.16 0.13 84 1014.7
20260505235537 59 244 4.0 7.0 0.00 0.16 0.13 84 1014.7
20260505235037 59 223 4.0 7.0 0.00 0.16 0.13 84 1014.8
20260505234605 58 232 3.0 7.0 0.00 0.16 0.13 83 1014.7
20260505234040 58 246 3.0 6.0 0.00 0.16 0.13 84 1014.7
20260505233541 58 246 3.0 6.0 0.00 0.16 0.13 83 1014.7
20260505233049 58 219 3.0 6.0 0.00 0.16 0.13 83 1014.9
20260505232537 58 231 2.0 6.0 0.00 0.16 0.13 83 1014.9
20260505232040 58 276 2.0 6.0 0.00 0.16 0.13 83 1014.9
20260505231549 59 245 3.0 7.0 0.00 0.16 0.13 82 1014.9
20260505231036 59 271 3.0 7.0 0.00 0.16 0.13 82 1014.9
20260505230537 59 252 2.0 7.0 0.00 0.16 0.13 83 1014.9
20260505230044 59 281 3.0 7.0 0.00 0.16 0.13 83 1014.9
20260505225538 59 236 3.0 7.0 0.00 0.16 0.13 83 1014.8
20260505225039 59 249 3.0 7.0 0.00 0.16 0.13 82 1014.7
20260505224546 59 223 3.0 8.0 0.00 0.16 0.13 81 1014.7
20260505224040 60 244 3.0 8.0 0.00 0.16 0.13 81 1014.8
20260505223537 60 240 4.0 6.0 0.00 0.16 0.13 80 1014.8
20260505223043 60 257 3.0 9.0 0.00 0.16 0.13 80 1014.9
20260505222540 60 225 2.0 9.0 0.00 0.16 0.13 81 1014.8
20260505222036 60 229 3.0 9.0 0.00 0.16 0.13 80 1014.8
20260505221544 59 204 3.0 7.0 0.00 0.16 0.13 81 1014.8
20260505221037 59 210 3.0 7.0 0.00 0.16 0.13 82 1014.9
20260505220539 59 216 3.0 7.0 0.00 0.16 0.13 82 1014.8
20260505220042 59 244 2.0 7.0 0.00 0.16 0.13 80 1014.9
20260505215538 59 238 3.0 8.0 0.00 0.16 0.13 79 1015.0
20260505215039 60 250 3.0 8.0 0.00 0.16 0.13 78 1015.0
20260505214604 60 288 2.0 7.0 0.00 0.16 0.13 79 1015.0
20260505214037 60 238 2.0 7.0 0.00 0.16 0.13 80 1015.0
20260505213539 59 246 2.0 7.0 0.00 0.16 0.13 82 1015.1
20260505213057 58 242 3.0 8.0 0.00 0.16 0.13 81 1015.2
20260505212537 59 252 3.0 8.0 0.00 0.16 0.13 82 1015.2
20260505212037 59 276 3.0 10.0 0.00 0.16 0.13 83 1015.3
20260505211543 59 250 2.0 10.0 0.00 0.16 0.13 83 1015.3
20260505211038 59 265 4.0 9.0 0.00 0.16 0.13 83 1015.3
20260505210536 59 316 3.0 9.0 0.00 0.16 0.13 82 1015.2
20260505210049 59 308 5.0 9.0 0.00 0.16 0.13 83 1015.2
20260505205539 59 271 2.0 8.0 0.00 0.16 0.13 82 1015.2
20260505205040 59 258 4.0 8.0 0.00 0.16 0.13 80 1015.1
20260505204554 60 246 3.0 9.0 0.00 0.16 0.13 80 1015.1
20260505204037 60 265 4.0 9.0 0.00 0.16 0.13 80 1015.1
20260505203537 60 263 2.0 9.0 0.00 0.16 0.13 80 1015.1
20260505203047 59 247 3.0 9.0 0.00 0.16 0.13 81 1015.0
20260505202537 59 254 4.0 9.0 0.00 0.16 0.13 81 1015.0
20260505202037 59 277 3.0 6.0 0.00 0.16 0.13 82 1015.1
20260505201550 58 248 3.0 7.0 0.00 0.16 0.13 81 1015.1
20260505201037 59 252 3.0 7.0 0.00 0.16 0.13 82 1015.1
20260505200537 59 278 3.0 9.0 0.00 0.16 0.13 83 1015.1
20260505200058 58 257 3.0 9.0 0.00 0.16 0.13 82 1015.1
20260505195537 59 238 4.0 8.0 0.00 0.16 0.13 82 1015.1
20260505195037 59 294 3.0 9.0 0.00 0.16 0.13 82 1015.1
20260505194549 59 217 4.0 9.0 0.00 0.16 0.13 83 1015.2
20260505194039 58 291 3.0 8.0 0.00 0.16 0.13 83 1015.1
20260505193538 58 286 3.0 8.0 0.00 0.16 0.13 83 1015.1
20260505193049 58 268 3.0 8.0 0.00 0.16 0.13 84 1015.1
20260505192536 58 248 3.0 8.0 0.00 0.16 0.13 85 1015.1
20260505192037 58 279 3.0 9.0 0.00 0.16 0.13 85 1015.1
20260505191543 58 250 3.0 9.0 0.00 0.16 0.13 86 1015.1
20260505191037 57 286 4.0 9.0 0.00 0.16 0.13 87 1015.1
20260505190537 57 281 3.0 7.0 0.00 0.16 0.13 87 1015.0
20260505190049 57 281 2.0 7.0 0.00 0.16 0.13 87 1014.9
20260505185539 57 286 2.0 8.0 0.00 0.16 0.13 87 1014.9
20260505185037 56 295 2.0 8.0 0.00 0.16 0.13 87 1014.7
20260505184547 56 262 2.0 6.0 0.00 0.16 0.13 87 1014.9
20260505184037 57 264 2.0 7.0 0.00 0.16 0.13 87 1015.0
20260505183536 57 281 2.0 8.0 0.00 0.16 0.13 87 1015.0
20260505183054 57 271 3.0 8.0 0.00 0.16 0.13 87 1015.1
20260505182537 58 319 2.0 6.0 0.00 0.16 0.13 88 1015.1
20260505182037 57 292 2.0 6.0 0.00 0.16 0.13 89 1015.0
20260505181547 57 294 2.0 4.0 0.00 0.16 0.13 89 1014.7
20260505181040 57 296 2.0 4.0 0.00 0.16 0.13 90 1014.7
20260505180541 57 275 1.0 4.0 0.00 0.16 0.13 90 1014.7
20260505180105 56 245 2.0 7.0 0.00 0.16 0.13 90 1014.6
20260505175537 56 278 2.0 7.0 0.00 0.16 0.13 91 1014.6
20260505175037 56 286 2.0 6.0 0.00 0.16 0.13 91 1014.5
20260505174600 56 292 3.0 6.0 0.00 0.16 0.13 91 1014.5
20260505174037 55 290 2.0 6.0 0.00 0.16 0.13 92 1014.5
20260505173536 55 294 2.0 6.0 0.00 0.16 0.13 92 1014.5
20260505173046 55 284 2.0 4.0 0.00 0.16 0.13 92 1014.5
20260505172536 55 305 2.0 6.0 0.00 0.16 0.13 93 1014.5
20260505172036 55 306 1.0 6.0 0.00 0.16 0.13 93 1014.6
20260505171552 55 292 1.0 4.0 0.00 0.16 0.13 93 1014.4
20260505171041 55 294 2.0 6.0 0.00 0.16 0.13 93 1014.5
20260505170537 55 313 2.0 6.0 0.00 0.16 0.13 93 1014.4
20260505170044 55 323 2.0 6.0 0.00 0.16 0.13 93 1014.4
20260505165536 55 298 1.0 4.0 0.00 0.16 0.13 93 1014.5
20260505165037 55 294 0.0 3.0 0.00 0.16 0.13 93 1014.5
20260505164548 55 294 1.0 5.0 0.00 0.16 0.13 93 1014.5
20260505164037 55 313 1.0 6.0 0.00 0.16 0.13 93 1014.5
20260505163537 54 286 2.0 6.0 0.00 0.16 0.13 93 1014.4
20260505163052 54 255 2.0 5.0 0.01 0.16 0.13 93 1014.4
20260505162538 54 254 1.0 4.0 0.02 0.16 0.13 93 1014.4
20260505162037 54 269 1.0 4.0 0.02 0.16 0.13 93 1014.4
20260505161545 54 240 1.0 3.0 0.02 0.16 0.13 93 1014.3
20260505161037 54 240 1.0 3.0 0.02 0.16 0.13 93 1014.2
20260505160537 54 240 1.0 3.0 0.02 0.16 0.13 93 1014.2
20260505153043 53 286 2.0 5.0 0.01 0.15 0.12 91 1014.0
20260505152537 53 205 3.0 5.0 0.00 0.14 0.11 91 1014.0
20260505152036 53 229 2.0 5.0 0.00 0.14 0.11 91 1013.9
20260505151549 53 214 3.0 5.0 0.00 0.14 0.11 91 1013.8
20260505151037 53 232 2.0 5.0 0.00 0.14 0.11 91 1013.8
20260505150537 53 214 2.0 5.0 0.00 0.14 0.11 91 1013.6
20260505140538 53 223 1.0 3.0 0.00 0.14 0.11 91 1013.5